GALAXY 36 (G-36)

Last updated on Sun Dec 07 2025 00:02:51 GMT+0000 (Coordinated Universal Time)

1 54742U 22170B 25340.45958469 .00000000 00000+0 00000+0 0 9996 2 54742 0.0130 335.9806 0000648 292.9746 242.9837 1.00269622 10845
UTC large
Height (km)
Speed (km/s)
/
Latitude / Longitude
Inclination (degrees)
Orbital Period (minutes)
Azimuth
Elevation
Range (km)
Doppler Factor

Next 0 passes for location: London (51.5072 / 0.1276)

Sorry there are no passes over London.